DW6801 Weather Reports


time (UTC)temp
C
wind
direction
speed
KPH
gust
KPH
rain 1hr
cm
rain 24hr
cm
rain mn
cm
humidity
%
barometer
mb
20260510183023 10 348 0.0 6.4 0.00 0.00 0.00 72 1009.9
20260510182509 10 335 1.6 6.4 0.00 0.00 0.00 71 1009.9
20260510182010 11 339 3.2 8.0 0.00 0.00 0.00 71 1009.9
20260510181521 11 329 3.2 8.0 0.00 0.00 0.00 70 1010.0
20260510181009 11 329 1.6 8.0 0.00 0.00 0.00 70 1010.0
20260510180512 11 346 4.8 9.7 0.00 0.00 0.00 69 1010.0
20260510180024 11 319 4.8 9.7 0.00 0.00 0.00 69 1010.1
20260510175507 11 360 4.8 9.7 0.00 0.00 0.00 69 1010.1
20260510175003 11 330 4.8 8.0 0.00 0.00 0.00 67 1010.0
20260510174512 11 352 4.8 9.7 0.00 0.00 0.00 67 1010.2
20260510174009 11 5 6.4 11.3 0.00 0.00 0.00 66 1010.3
20260510173507 12 323 6.4 14.5 0.00 0.00 0.00 66 1010.3
20260510173008 12 342 4.8 14.5 0.00 0.00 0.00 67 1010.3
20260510172511 12 322 8.0 14.5 0.00 0.00 0.00 66 1010.4
20260510172009 12 348 6.4 12.9 0.00 0.00 0.00 66 1010.4
20260510171510 12 348 8.0 12.9 0.00 0.00 0.00 67 1010.5
20260510171007 12 5 8.0 12.9 0.00 0.00 0.00 66 1010.5
20260510170511 12 304 4.8 12.9 0.00 0.00 0.00 65 1010.5
20260510170025 12 311 6.4 12.9 0.00 0.00 0.00 64 1010.6
20260510165510 12 314 4.8 14.5 0.00 0.00 0.00 63 1010.6
20260510165011 13 352 6.4 14.5 0.00 0.00 0.00 62 1010.6
20260510164528 13 318 6.4 14.5 0.00 0.00 0.00 61 1010.7
20260510164006 13 328 6.4 14.5 0.00 0.00 0.00 61 1010.7
20260510163509 13 352 8.0 14.5 0.00 0.00 0.00 62 1010.7
20260510163021 13 292 3.2 12.9 0.00 0.00 0.00 61 1010.7
20260510162509 13 330 6.4 14.5 0.00 0.00 0.00 60 1010.7
20260510162013 14 307 6.4 14.5 0.00 0.00 0.00 58 1010.8
20260510161517 14 279 4.8 14.5 0.00 0.00 0.00 59 1010.8
20260510161012 14 331 8.0 16.1 0.00 0.00 0.00 55 1010.8
20260510160508 15 350 4.8 16.1 0.00 0.00 0.00 54 1010.8
20260510160013 15 342 3.2 14.5 0.00 0.00 0.00 50 1010.9
20260510155515 15 348 9.7 14.5 0.00 0.00 0.00 51 1011.0
20260510155011 15 327 6.4 14.5 0.00 0.00 0.00 52 1011.0
20260510154514 15 343 6.4 14.5 0.00 0.00 0.00 53 1011.0
20260510154009 15 287 9.7 16.1 0.00 0.00 0.00 52 1011.1
20260510153506 15 307 6.4 16.1 0.00 0.00 0.00 52 1011.1
20260510153007 15 5 4.8 14.5 0.00 0.00 0.00 52 1011.2
20260510152506 15 348 4.8 16.1 0.00 0.00 0.00 53 1011.2
20260510152010 15 9 8.0 16.1 0.00 0.00 0.00 51 1011.2
20260510151531 15 320 8.0 19.3 0.00 0.00 0.00 51 1011.3
20260510151007 15 323 11.3 19.3 0.00 0.00 0.00 52 1011.3
20260510150507 16 313 9.7 16.1 0.00 0.00 0.00 53 1011.3
20260510150022 15 18 4.8 16.1 0.00 0.00 0.00 53 1011.4
20260510145505 15 324 4.8 17.7 0.00 0.00 0.00 53 1011.4
20260510145007 16 315 9.7 17.7 0.00 0.00 0.00 52 1011.5
20260510144522 16 360 11.3 17.7 0.00 0.00 0.00 52 1011.5
20260510144011 16 34 4.8 19.3 0.00 0.00 0.00 53 1011.5
20260510143508 15 347 9.7 19.3 0.00 0.00 0.00 52 1011.6
20260510143018 15 337 9.7 19.3 0.00 0.00 0.00 50 1011.6
20260510142512 15 343 9.7 17.7 0.00 0.00 0.00 51 1011.7
20260510142013 15 319 8.0 17.7 0.00 0.00 0.00 52 1011.7
20260510141516 15 343 9.7 17.7 0.00 0.00 0.00 51 1011.7
20260510141011 13 324 9.7 17.7 0.00 0.00 0.00 58 1011.9
20260510140511 13 335 8.0 17.7 0.00 0.00 0.00 56 1011.9
20260510140011 13 329 6.4 16.1 0.00 0.00 0.00 59 1011.8
20260510135509 13 286 3.2 4.8 0.00 0.00 0.00 65 1011.8
20260510135014 13 360 1.6 6.4 0.00 0.00 0.00 66 1011.7
20260510134524 13 346 3.2 6.4 0.00 0.00 0.00 65 1011.8
20260510134007 13 34 3.2 8.0 0.00 0.00 0.00 66 1011.8
20260510133507 13 78 3.2 9.7 0.00 0.00 0.00 66 1011.7
20260510133026 13 50 4.8 14.5 0.00 0.00 0.00 65 1011.8
20260510132508 13 352 6.4 14.5 0.00 0.00 0.00 64 1011.9
20260510132010 13 5 4.8 11.3 0.00 0.00 0.00 66 1012.0
20260510131522 13 20 4.8 12.9 0.00 0.00 0.00 63 1012.1
20260510131011 13 350 3.2 14.5 0.00 0.00 0.00 65 1012.2
20260510130507 13 13 8.0 14.5 0.00 0.00 0.00 65 1012.3
20260510130021 13 24 4.8 14.5 0.00 0.00 0.00 66 1012.3
20260510125509 13 36 3.2 14.5 0.00 0.00 0.00 65 1012.3
20260510125006 13 15 3.2 17.7 0.00 0.00 0.00 66 1012.4
20260510124526 13 61 3.2 17.7 0.00 0.00 0.00 66 1012.4
20260510124011 13 53 1.6 9.7 0.00 0.00 0.00 65 1012.5
20260510123511 13 81 3.2 11.3 0.00 0.00 0.00 66 1012.6
20260510123017 13 26 4.8 12.9 0.00 0.00 0.00 66 1012.7
20260510122508 14 9 3.2 14.5 0.00 0.00 0.00 66 1012.6
20260510122011 14 76 4.8 14.5 0.00 0.00 0.00 64 1012.5
20260510121512 13 86 6.4 12.9 0.00 0.00 0.00 66 1012.6
20260510121007 12 77 4.8 14.5 0.00 0.00 0.00 67 1012.8
20260510120518 12 92 8.0 16.1 0.00 0.00 0.00 68 1012.8
20260510120027 12 54 4.8 16.1 0.00 0.00 0.00 67 1012.9
20260510115507 12 68 8.0 12.9 0.00 0.00 0.00 67 1012.8
20260510115011 12 154 0.0 6.4 0.00 0.00 0.00 69 1012.8
20260510114528 12 82 3.2 6.4 0.00 0.00 0.00 67 1012.8
20260510114007 13 79 3.2 6.4 0.00 0.00 0.00 66 1012.8
20260510113508 13 112 1.6 6.4 0.00 0.00 0.00 66 1012.9
20260510113024 14 153 1.6 8.0 0.00 0.00 0.00 63 1012.9
20260510112507 15 131 4.8 12.9 0.00 0.00 0.00 62 1013.0
20260510112010 15 24 3.2 12.9 0.00 0.00 0.00 61 1013.1
20260510111520 15 312 3.2 12.9 0.00 0.00 0.00 65 1013.1
20260510111010 14 295 4.8 12.9 0.00 0.00 0.00 63 1013.1
20260510110508 14 275 4.8 12.9 0.00 0.00 0.00 62 1013.2
20260510110018 15 342 4.8 17.7 0.00 0.00 0.00 62 1013.2
20260510105510 16 241 4.8 17.7 0.00 0.00 0.00 59 1013.1
20260510105010 16 310 3.2 9.7 0.00 0.00 0.00 60 1013.1
20260510104514 16 11 1.6 11.3 0.00 0.00 0.00 61 1013.1
20260510104008 16 300 3.2 11.3 0.00 0.00 0.00 62 1013.3
20260510103510 15 298 3.2 8.0 0.00 0.00 0.00 66 1013.4
20260510103011 14 196 4.8 14.5 0.00 0.00 0.00 66 1013.5
20260510102511 14 222 4.8 14.5 0.00 0.00 0.00 64 1013.6
20260510102011 13 122 0.0 4.8 0.00 0.00 0.00 66 1013.7
20260510101526 13 125 0.0 6.4 0.00 0.00 0.00 64 1013.7
20260510101008 13 208 3.2 11.3 0.00 0.00 0.00 66 1013.8
20260510100509 12 160 1.6 11.3 0.00 0.00 0.00 66 1013.9
20260510100027 12 224 0.0 8.0 0.00 0.00 0.00 68 1013.9
20260510095511 12 165 1.6 11.3 0.00 0.00 0.00 66 1013.9
20260510095014 12 184 4.8 11.3 0.00 0.00 0.00 64 1014.0
20260510094537 13 207 4.8 11.3 0.00 0.00 0.00 67 1014.1
20260510094012 12 249 6.4 11.3 0.00 0.00 0.00 66 1014.2
20260510093508 12 173 4.8 12.9 0.00 0.00 0.00 67 1014.2
20260510093020 12 194 4.8 12.9 0.00 0.00 0.00 65 1014.3
20260510092515 12 226 6.4 12.9 0.00 0.00 0.00 66 1014.3
20260510092007 12 200 6.4 12.9 0.00 0.00 0.00 69 1014.3
20260510091522 11 132 1.6 11.3 0.00 0.00 0.00 71 1014.4
20260510091010 11 133 4.8 11.3 0.00 0.00 0.00 71 1014.5
20260510090509 11 168 6.4 11.3 0.00 0.00 0.00 71 1014.5
20260510090019 10 125 6.4 14.5 0.00 0.00 0.00 72 1014.4
20260510085508 10 152 9.7 14.5 0.00 0.00 0.00 72 1014.5
20260510085010 10 150 9.7 14.5 0.00 0.00 0.00 72 1014.5
20260510084526 10 141 8.0 14.5 0.00 0.00 0.00 72 1014.6
20260510084008 10 152 3.2 14.5 0.00 0.00 0.00 72 1014.6
20260510083510 10 182 9.7 14.5 0.00 0.00 0.00 72 1014.7
20260510083044 10 159 4.8 9.7 0.00 0.00 0.00 72 1014.6
20260510082506 10 156 3.2 8.0 0.00 0.00 0.00 71 1014.5
20260510082013 10 166 4.8 9.7 0.00 0.00 0.00 72 1014.5
20260510081528 10 163 3.2 9.7 0.00 0.00 0.00 72 1014.5
20260510081010 10 130 3.2 11.3 0.00 0.00 0.00 72 1014.5
20260510080509 10 153 3.2 11.3 0.00 0.00 0.00 71 1014.6
20260510080027 10 130 4.8 9.7 0.00 0.00 0.00 71 1014.6
20260510075512 10 131 4.8 11.3 0.00 0.00 0.00 71 1014.7
20260510075008 10 113 6.4 11.3 0.00 0.00 0.00 71 1014.7
20260510074522 10 169 4.8 9.7 0.00 0.00 0.00 72 1014.7
20260510074019 10 144 4.8 12.9 0.00 0.00 0.00 72 1014.7
20260510073510 10 132 3.2 16.1 0.00 0.00 0.00 73 1014.8
20260510073021 10 144 6.4 16.1 0.00 0.00 0.00 74 1014.9
20260510072514 10 163 6.4 16.1 0.00 0.00 0.00 75 1014.9
20260510072010 9 140 9.7 16.1 0.00 0.00 0.00 75 1014.9
20260510071515 9 155 4.8 14.5 0.00 0.00 0.00 76 1014.9
20260510071011 9 128 8.0 14.5 0.00 0.00 0.00 77 1015.1
20260510070509 8 127 6.4 11.3 0.00 0.00 0.00 78 1015.0
20260510070028 8 146 4.8 9.7 0.00 0.00 0.00 79 1015.1
20260510065509 8 142 4.8 11.3 0.00 0.00 0.00 79 1015.1
20260510065008 8 149 4.8 11.3 0.00 0.00 0.00 79 1015.1
20260510064530 8 125 4.8 8.0 0.00 0.00 0.00 79 1015.2
20260510064007 8 147 0.0 8.0 0.00 0.00 0.00 79 1015.3
20260510063508 8 122 1.6 8.0 0.00 0.00 0.00 79 1015.3
20260510063025 8 134 1.6 11.3 0.00 0.00 0.00 79 1015.1
20260510062511 7 105 4.8 11.3 0.00 0.00 0.00 79 1015.2
20260510062010 7 142 6.4 9.7 0.00 0.00 0.00 78 1015.3
20260510061527 7 133 4.8 6.4 0.00 0.00 0.00 78 1015.3
20260510061011 7 105 3.2 11.3 0.00 0.00 0.00 78 1015.4
20260510060507 7 136 1.6 12.9 0.00 0.00 0.00 79 1015.3
20260510060004 7 127 8.0 12.9 0.00 0.00 0.00 78 1015.3
20260510055504 7 119 6.4 14.5 0.00 0.00 0.00 78 1015.3
20260510055008 7 92 4.8 14.5 0.00 0.00 0.00 78 1015.2
20260510054532 7 103 8.0 12.9 0.00 0.00 0.00 78 1015.3
20260510054004 7 109 6.4 11.3 0.00 0.00 0.00 78 1015.4
20260510053504 7 142 6.4 11.3 0.00 0.00 0.00 1015.4
20260510053017 7 136 4.8 11.3 0.00 0.00 0.00 1015.5
20260510052506 7 123 4.8 12.9 0.00 0.00 0.00 1015.5
20260510052006 7 131 6.4 12.9 0.00 0.00 0.00 1015.6
20260510051515 7 138 4.8 11.3 0.00 0.00 0.00 1015.7
20260510051010 7 125 4.8 11.3 0.00 0.00 0.00 1015.7
20260510050503 7 115 4.8 9.7 0.00 0.00 0.00 78 1015.8
20260510050014 7 112 1.6 6.4 0.00 0.00 0.00 78 1015.9
20260510045509 7 114 3.2 9.7 0.00 0.00 0.00 79 1015.9
20260510045004 7 93 1.6 9.7 0.00 0.00 0.00 78 1016.0
20260510044508 7 123 3.2 9.7 0.00 0.00 0.00 78 1016.0
20260510044009 7 111 3.2 6.4 0.00 0.00 0.00 79 1016.0
20260510043510 7 130 0.0 6.4 0.00 0.00 0.00 79 1016.1
20260510043010 7 114 0.0 6.4 0.00 0.00 0.00 79 1016.2
20260510042507 7 101 3.2 6.4 0.00 0.00 0.00 79 1016.2
20260510042006 7 134 1.6 6.4 0.00 0.00 0.00 79 1016.3
20260510041524 7 127 3.2 4.8 0.00 0.00 0.00 79 1016.4
20260510041004 7 119 1.6 6.4 0.00 0.00 0.00 78 1016.6
20260510040509 6 106 3.2 4.8 0.00 0.00 0.00 78 1016.6
20260510040022 6 115 3.2 11.3 0.00 0.00 0.00 78 1016.7
20260510035503 6 133 3.2 11.3 0.00 0.00 0.00 78 1016.6
20260510035009 6 121 3.2 4.8 0.00 0.00 0.00 78 1016.6
20260510034523 6 115 3.2 4.8 0.00 0.00 0.00 78 1016.6
20260510034012 6 115 3.2 4.8 0.00 0.00 0.00 78 1016.7
20260510033507 6 111 1.6 4.8 0.00 0.00 0.00 79 1016.6
20260510033016 6 109 1.6 4.8 0.00 0.00 0.00 79 1016.7
20260510032509 5 121 1.6 3.2 0.00 0.00 0.00 79 1016.7
20260510032005 5 134 1.6 3.2 0.00 0.00 0.00 81 1016.7
20260510031514 5 119 1.6 4.8 0.00 0.00 0.00 81 1016.8
20260510031010 5 121 1.6 4.8 0.00 0.00 0.00 82 1016.8
20260510030517 4 110 1.6 4.8 0.00 0.00 0.00 81 1016.9
20260510030018 4 105 1.6 4.8 0.00 0.00 0.00 82 1017.0
20260510025508 4 110 1.6 4.8 0.00 0.00 0.00 81 1017.1
20260510025012 4 111 3.2 4.8 0.00 0.00 0.00 81 1017.0
20260510024505 4 96 1.6 3.2 0.00 0.00 0.00 79 1017.0
20260510024006 5 111 1.6 3.2 0.00 0.00 0.00 78 1017.1
20260510023506 5 115 1.6 3.2 0.00 0.00 0.00 79 1017.1
20260510023024 5 107 1.6 3.2 0.00 0.00 0.00 78 1017.1
20260510022506 5 109 1.6 6.4 0.00 0.00 0.00 78 1017.2
20260510022010 5 113 1.6 6.4 0.00 0.00 0.00 78 1017.3
20260510021520 5 109 1.6 6.4 0.00 0.00 0.00 78 1017.3
20260510021003 6 109 3.2 6.4 0.00 0.00 0.00 79 1017.3
20260510020511 5 100 1.6 4.8 0.00 0.00 0.00 79 1017.3
20260510020018 5 94 1.6 4.8 0.00 0.00 0.00 78 1017.4
20260510015510 5 112 0.0 4.8 0.00 0.00 0.00 78 1017.5
20260510015003 6 115 1.6 6.4 0.00 0.00 0.00 77 1017.5
20260510014516 6 105 1.6 6.4 0.00 0.00 0.00 78 1017.5
20260510014008 6 115 3.2 6.4 0.00 0.00 0.00 79 1017.6
20260510013510 6 115 3.2 6.4 0.00 0.00 0.00 79 1017.7
20260510013010 6 109 1.6 6.4 0.00 0.00 0.00 79 1017.8
20260510012507 5 95 1.6 6.4 0.00 0.00 0.00 81 1017.8
20260510012009 5 101 3.2 4.8 0.00 0.00 0.00 80 1017.9
20260510011510 5 114 1.6 4.8 0.00 0.00 0.00 79 1018.0
20260510011008 5 123 1.6 4.8 0.00 0.00 0.00 79 1018.0
20260510010511 5 111 0.0 6.4 0.00 0.00 0.00 79 1018.1
20260510010027 5 115 1.6 6.4 0.00 0.00 0.00 79 1018.0
20260510005506 5 101 3.2 4.8 0.00 0.00 0.00 80 1018.1
20260510005006 5 107 1.6 4.8 0.00 0.00 0.00 80 1018.3
20260510004525 5 128 1.6 3.2 0.00 0.00 0.00 79 1018.5
20260510004007 5 126 1.6 4.8 0.00 0.00 0.00 79 1018.6
20260510003507 5 144 1.6 4.8 0.00 0.00 0.00 79 1018.6
20260510003034 5 111 1.6 3.2 0.00 0.00 0.00 79 1018.7
20260510002507 5 125 1.6 4.8 0.00 0.00 0.00 79 1018.8
20260510002006 5 105 1.6 4.8 0.00 0.00 0.00 78 1018.9
20260510001522 4 114 1.6 3.2 0.00 0.00 0.00 79 1018.9
20260510001011 4 118 1.6 3.2 0.00 0.00 0.00 79 1019.0
20260510000504 4 105 1.6 3.2 0.00 0.00 0.00 80 1019.1
20260510000014 4 117 0.0 4.8 0.00 0.00 0.00 79 1019.1
20260509235509 5 117 1.6 4.8 0.00 0.00 0.00 78 1019.2
20260509235010 5 112 1.6 3.2 0.00 0.00 0.00 74 1019.3
20260509234523 5 144 0.0 3.2 0.00 0.00 0.00 78 1019.4
20260509234006 5 144 0.0 3.2 0.00 0.00 0.00 78 1019.5
20260509233502 5 143 1.6 3.2 0.00 0.00 0.00 80 1019.5
20260509233010 4 153 0.0 3.2 0.00 0.00 0.00 81 1019.5
20260509232511 3 128 1.6 3.2 0.00 0.00 0.00 80 1019.5
20260509232007 4 115 0.0 3.2 0.00 0.00 0.00 79 1019.5
20260509231512 3 113 1.6 3.2 0.00 0.00 0.00 79 1019.6
20260509231006 4 148 0.0 3.2 0.00 0.00 0.00 78 1019.7
20260509230508 4 148 0.0 3.2 0.00 0.00 0.00 79 1019.7
20260509230005 3 149 0.0 3.2 0.00 0.00 0.00 79 1019.8
20260509225505 4 153 0.0 3.2 0.00 0.00 0.00 78 1019.9
20260509225008 4 153 0.0 1.6 0.00 0.00 0.00 76 1020.0
20260509224519 3 153 0.0 1.6 0.00 0.00 0.00 76 1020.0
20260509224003 3 153 0.0 0.0 0.00 0.00 0.00 78 1020.0
20260509223510 4 153 0.0 0.0 0.00 0.00 0.00 77 1020.0
20260509223030 4 153 0.0 0.0 0.00 0.00 0.00 76 1020.1
20260509222503 4 153 0.0 0.0 0.00 0.00 0.00 76 1020.1
20260509222007 4 153 0.0 0.0 0.00 0.00 0.00 76 1020.1
20260509221516 4 153 0.0 0.0 0.00 0.00 0.00 77 1020.2
20260509221007 4 153 0.0 3.2 0.00 0.00 0.00 75 1020.1
20260509220503 4 153 0.0 3.2 0.00 0.00 0.00 76 1020.1
20260509220022 4 153 0.0 1.6 0.00 0.00 0.00 75 1020.2
20260509215513 4 153 0.0 3.2 0.00 0.00 0.00 75 1020.2
20260509215008 4 153 0.0 3.2 0.00 0.00 0.00 74 1020.2
20260509214510 5 207 0.0 3.2 0.00 0.00 0.00 74 1020.2
20260509214012 5 213 0.0 0.0 0.00 0.00 0.00 74 1020.2
20260509213509 5 213 0.0 0.0 0.00 0.00 0.00 73 1020.3
20260509213009 5 213 0.0 0.0 0.00 0.00 0.00 74 1020.2
20260509212507 5 213 0.0 0.0 0.00 0.00 0.00 73 1020.2
20260509212009 5 213 0.0 0.0 0.00 0.00 0.00 74 1020.1
20260509211524 5 213 0.0 0.0 0.00 0.00 0.00 72 1020.1
20260509211009 5 213 0.0 0.0 0.00 0.00 0.00 73 1020.1
20260509210508 5 213 0.0 0.0 0.00 0.00 0.00 73 1020.2
20260509210022 5 213 0.0 0.0 0.00 0.00 0.00 71 1020.2
20260509205505 5 213 0.0 0.0 0.00 0.00 0.00 71 1020.3
20260509205007 5 213 0.0 0.0 0.00 0.00 0.00 70 1020.2
20260509204526 6 213 0.0 0.0 0.00 0.00 0.00 70 1020.2
20260509204011 6 213 0.0 0.0 0.00 0.00 0.00 68 1020.3
20260509203504 6 213 0.0 0.0 0.00 0.00 0.00 69 1020.3
20260509203017 6 213 0.0 0.0 0.00 0.00 0.00 68 1020.3
20260509202508 6 213 0.0 3.2 0.00 0.00 0.00 67 1020.3
20260509202004 6 213 0.0 3.2 0.00 0.00 0.00 66 1020.2
20260509201515 6 213 0.0 3.2 0.00 0.00 0.00 67 1020.3
20260509201013 7 213 0.0 1.6 0.00 0.00 0.00 66 1020.3
20260509200508 7 213 0.0 1.6 0.00 0.00 0.00 64 1020.3
20260509200009 7 213 0.0 1.6 0.00 0.00 0.00 65 1020.3
20260509195509 7 213 0.0 1.6 0.00 0.00 0.00 64 1020.3
20260509195007 7 213 1.6 1.6 0.00 0.00 0.00 63 1020.3
20260509194509 7 205 0.0 3.2 0.00 0.00 0.00 63 1020.2
20260509194007 8 202 0.0 3.2 0.00 0.00 0.00 1020.3
20260509193508 8 202 0.0 3.2 0.00 0.00 0.00 58 1020.2
20260509193024 8 202 0.0 1.6 0.00 0.00 0.00 58 1020.3
20260509192504 8 202 0.0 1.6 0.00 0.00 0.00 57 1020.3
20260509192008 9 202 0.0 3.2 0.00 0.00 0.00 56 1020.3
20260509191524 10 205 1.6 3.2 0.00 0.00 0.00 54 1020.2
20260509191007 10 203 1.6 4.8 0.00 0.00 0.00 53 1020.2
20260509190507 10 211 3.2 6.4 0.00 0.00 0.00 52 1020.1
20260509190024 10 200 1.6 6.4 0.00 0.00 0.00 52 1020.1
20260509185509 11 213 3.2 8.0 0.00 0.00 0.00 50 1020.0
20260509185007 11 223 3.2 8.0 0.00 0.00 0.00 49 1020.0
20260509184520 11 181 3.2 8.0 0.00 0.00 0.00 49 1020.0
20260509184012 11 222 3.2 6.4 0.00 0.00 0.00 47 1020.0
20260509183509 11 213 1.6 8.0 0.00 0.00 0.00 47 1019.9